Total_Precipitation_Accumulation
1.68 1.79 1.82 1.79 1.80 1.85 1.93 2.09 2.29 2.20 2.01 1.79 1.74 1.68 1.64 1.61 1.70 1.44 1.41 1.38 1.33 1.35 1.36 1.39 1.48 1.67 1.75 1.72 1.60 1.50 1.47 1.53 1.66 1.81 2.03 2.29 2.57 2.87
1.56 1.54 1.53 1.48 1.56 1.59 1.69 1.81 2.00 2.15 2.03 1.68 1.63 1.67 1.69 1.58 1.76 1.56 1.50 1.48 1.41 1.56 1.67 1.63 1.62 1.80 1.94 1.95 1.77 1.60 1.53 1.50 1.53 1.58 1.68 1.87 2.12 2.38
1.25 1.23 1.26 1.33 1.44 1.45 1.48 1.61 1.83 2.04 2.10 1.72 1.58 1.68 1.83 1.78 1.82 1.73 1.61 1.61 1.60 1.92 2.07 2.26 2.04 1.95 2.03 2.06 1.99 1.76 1.59 1.51 1.55 1.61 1.71 1.83 1.91 2.01
1.14 1.19 1.20 1.23 1.31 1.38 1.45 1.51 1.67 1.93 2.09 1.99 1.76 1.79 1.86 1.83 1.90 1.85 1.65 1.56 1.60 2.02 2.25 2.53 2.47 2.21 2.21 2.10 2.00 1.81 1.65 1.53 1.52 1.56 1.61 1.68 1.76 1.84
1.08 1.13 1.18 1.33 1.34 1.37 1.44 1.48 1.59 1.73 2.05 2.10 1.90 1.90 1.96 1.97 2.12 1.95 1.77 1.75 1.51 1.81 2.22 2.53 2.61 2.61 2.67 2.55 2.31 1.96 1.71 1.52 1.39 1.37 1.42 1.48 1.51 1.52
1.07 1.14 1.19 1.31 1.39 1.45 1.46 1.54 1.62 1.77 1.96 2.10 2.04 2.04 2.10 2.15 2.18 2.10 1.97 1.83 1.66 1.59 2.04 2.45 2.76 2.81 2.94 3.03 2.78 2.33 1.96 1.65 1.43 1.28 1.19 1.17 1.23 1.24
1.02 1.03 1.08 1.18 1.29 1.29 1.21 1.31 1.51 1.76 1.83 2.02 2.07 2.11 2.10 2.17 2.08 1.86 1.81 1.78 1.64 1.54 1.74 2.09 2.77 3.08 3.11 3.17 3.07 2.59 2.15 1.81 1.53 1.33 1.21 1.14 1.13 1.16
1.01 1.00 0.96 0.94 0.92 0.94 0.98 1.06 1.23 1.53 1.88 2.12 2.08 2.06 1.95 1.89 1.91 1.86 1.88 1.90 1.84 1.55 1.51 1.75 2.30 3.08 3.30 3.23 3.14 2.54 2.01 1.71 1.52 1.37 1.28 1.22 1.20 1.22
1.13 1.09 0.87 0.75 0.86 0.91 0.96 1.00 1.13 1.32 1.66 2.05 2.14 1.93 1.88 1.85 1.92 1.93 1.99 2.02 1.87 1.57 1.64 1.85 2.17 2.85 3.00 2.96 2.88 2.25 1.79 1.55 1.40 1.30 1.25 1.20 1.16 1.19
1.03 1.06 1.07 0.98 0.91 1.00 1.07 1.14 1.26 1.38 1.49 1.61 1.95 1.79 1.60 1.66 1.79 1.86 1.99 2.03 1.91 1.70 1.74 2.01 2.20 2.65 2.62 2.66 2.56 2.08 1.71 1.50 1.32 1.20 1.15 1.15 1.13 1.15
0.89 0.88 0.88 0.91 1.01 1.18 1.29 1.50 1.62 1.72 1.60 1.75 1.91 1.87 1.73 1.69 1.63 1.78 2.08 2.15 2.01 1.83 1.82 2.09 2.20 2.29 2.38 2.43 2.16 1.95 1.66 1.47 1.32 1.20 1.13 1.08 1.05 1.10
0.95 0.91 0.83 0.78 0.93 1.11 1.35 1.67 1.83 1.90 1.75 1.85 2.11 2.14 1.97 1.98 1.98 1.93 2.16 2.25 2.15 2.05 1.80 1.91 2.07 2.07 2.25 2.17 1.98 1.82 1.73 1.71 1.51 1.33 1.23 1.09 0.99 0.97
0.94 0.98 0.95 0.87 0.92 1.15 1.37 1.58 1.74 1.79 1.84 1.95 1.98 1.99 2.06 2.09 2.11 2.09 2.12 2.14 2.10 1.99 1.66 1.81 2.02 2.05 2.14 2.13 2.07 2.03 1.96 1.91 1.74 1.64 1.57 1.40 1.22 1.08
0.96 0.99 1.02 0.99 1.03 1.22 1.37 1.62 1.82 1.91 1.91 1.99 1.87 1.75 1.71 1.73 1.82 1.85 1.88 1.87 1.82 1.77 1.67 1.78 2.06 2.22 2.16 2.04 2.14 2.13 2.17 2.23 2.13 2.02 1.89 1.76 1.58 1.50
0.91 0.99 1.00 1.01 1.12 1.39 1.56 1.74 1.92 2.04 2.10 1.99 1.78 1.66 1.54 1.50 1.51 1.61 1.71 1.74 1.65 1.52 1.43 1.59 1.91 2.11 2.17 2.10 2.19 2.21 2.29 2.44 2.38 2.35 2.22 2.06 1.92 1.75
0.88 1.04 1.12 1.16 1.30 1.58 1.78 1.97 2.05 1.99 1.86 1.81 1.72 1.63 1.50 1.44 1.48 1.45 1.50 1.57 1.61 1.57 1.47 1.49 1.77 2.09 2.18 2.03 2.08 2.17 2.27 2.58 2.52 2.32 2.21 2.22 2.13 1.96
0.81 1.01 1.19 1.30 1.46 1.67 1.86 1.93 1.92 1.83 1.74 1.57 1.50 1.57 1.56 1.47 1.46 1.41 1.40 1.42 1.50 1.54 1.54 1.55 1.62 1.76 1.80 1.86 1.99 2.06 2.18 2.38 2.41 2.22 2.10 2.16 2.20 2.06
0.79 1.02 1.19 1.28 1.44 1.64 1.80 1.81 1.75 1.66 1.56 1.43 1.36 1.32 1.33 1.30 1.33 1.33 1.25 1.25 1.31 1.28 1.25 1.31 1.42 1.56 1.59 1.61 1.76 1.90 1.97 2.12 2.11 1.97 1.82 1.89 2.10 2.12
0.74 0.97 1.13 1.26 1.46 1.58 1.60 1.59 1.59 1.51 1.39 1.33 1.29 1.21 1.14 1.12 1.12 1.11 1.10 1.13 1.10 1.06 1.02 1.04 1.15 1.32 1.46 1.62 1.61 1.65 1.78 1.86 1.80 1.68 1.62 1.69 1.93 2.10
0.73 0.95 1.10 1.22 1.33 1.42 1.47 1.49 1.46 1.39 1.29 1.25 1.31 1.27 1.18 1.10 1.02 1.02 1.03 1.01 1.01 0.98 0.96 0.90 0.86 0.97 1.16 1.32 1.48 1.52 1.47 1.49 1.49 1.52 1.48 1.53 1.70 1.78
0.77 0.91 1.03 1.16 1.18 1.17 1.21 1.27 1.29 1.28 1.22 1.18 1.17 1.18 1.14 1.07 0.97 0.90 0.87 0.79 0.83 0.91 0.91 0.83 0.76 0.78 0.90 1.04 1.18 1.23 1.20 1.28 1.27 1.23 1.22 1.29 1.38 1.39
0.76 0.87 0.95 1.00 0.98 0.97 0.97 0.98 1.03 1.08 1.07 1.01 0.99 1.01 1.00 0.94 0.91 0.87 0.84 0.81 0.80 0.76 0.71 0.69 0.71 0.74 0.84 0.98 1.08 1.11 1.09 1.05 1.08 1.08 1.09 1.11 1.15 1.34
0.71 0.73 0.77 0.81 0.80 0.81 0.82 0.85 0.88 0.92 0.93 0.92 0.88 0.86 0.84 0.84 0.80 0.78 0.78 0.75 0.72 0.68 0.68 0.70 0.70 0.70 0.72 0.80 0.90 0.97 0.98 1.00 1.02 1.05 1.07 1.14 1.12 1.17